This is the latest recevied weather packets stored in our database for station/object N1HQ. If no packets are shown the sender has not sent any weather packets the latest 10 day(s).
| Time | Temp. | Humidity | Pressure | Rain* | Wind** | Luminosity | Snow |
|---|---|---|---|---|---|---|---|
| 1787825678 | 25° C | 97% | 1012.3 hPa | 0 mm | - | - | - |
| 1787825423 | 24.44° C | 97% | 1012 hPa | 0 mm | - | - | - |
| 1787825151 | 24.44° C | 97% | 1011.8 hPa | 0 mm | - | - | - |
| 1787824872 | 24.44° C | 96% | 1011.9 hPa | 0 mm | - | - | - |
| 1787824631 | 24.44° C | 95% | 1011.8 hPa | 0 mm | - | - | - |
| 1787824383 | 25° C | 95% | 1011.9 hPa | 0 mm | - | - | - |
| 1787824108 | 25° C | 94% | 1011.9 hPa | 0 mm | - | - | - |
| 1787823837 | 25.56° C | 94% | 1011.9 hPa | 0 mm | - | - | - |
| 1787823574 | 25.56° C | 93% | 1011.9 hPa | 0 mm | - | - | - |
| 1787823328 | 26.11° C | 91% | 1011.9 hPa | 0 mm | - | - | - |
| 1787823078 | 27.22° C | 89% | 1011.8 hPa | 0 mm | - | - | - |
| 1787822828 | 27.78° C | 87% | 1011.9 hPa | 0 mm | - | - | - |
| 1787822538 | 27.78° C | 92% | 1012 hPa | 0 mm | - | - | - |
| 1787822278 | 27.78° C | 92% | 1012 hPa | 0 mm | - | - | - |
| 1787821983 | 27.78° C | 93% | 1011.7 hPa | 0 mm | - | - | - |
| 1787821711 | 27.78° C | 93% | 1011.8 hPa | 0 mm | - | - | - |
| 1787821417 | 27.78° C | 93% | 1011.7 hPa | 0 mm | - | - | - |
| 1787821131 | 27.78° C | 93% | 1011.6 hPa | 0 mm | - | - | - |
| 1787820868 | 27.78° C | 92% | 1011.6 hPa | 0 mm | - | - | - |
| 1787820610 | 27.78° C | 93% | 1011.7 hPa | 0 mm | - | - | - |
| 1787820358 | 27.78° C | 93% | 1011.8 hPa | 0 mm | - | - | - |
| 1787820098 | 27.78° C | 93% | 1011.7 hPa | 0 mm | - | - | - |
| 1787819851 | 27.78° C | 93% | 1011.7 hPa | 0 mm | - | - | - |
| 1787819593 | 27.78° C | 93% | 1011.7 hPa | 0 mm | - | - | - |
| 1787819303 | 27.22° C | 93% | 1011.5 hPa | 0 mm | - | - | - |
* Rain latest hour (hover to see other rain measurements)
** Current wind speed in m/s (hover to see current wind gust speed)